Overview Statistics Trail Chart Weather Telemetry Raw packets
 

This is the latest recevied weather packets stored in our database for station/object KC4JIR. If no packets are shown the sender has not sent any weather packets the latest 10 day(s).

<< 43 44 45 46 47 48 49 >>
Time Temp. Humidity Pressure Rain* Wind** Luminosity Snow
1788316339 26.67° C 86% 1015.5 hPa 0 mm - 0 W/m² -
1788316038 26.67° C 85% 1015.4 hPa 0 mm - 0 W/m² -
1788315734 26.67° C 84% 1015.6 hPa 0 mm - 0 W/m² -
1788315429 26.67° C 84% 1015.2 hPa 0 mm - 0 W/m² -
1788315124 26.67° C 84% 1015.2 hPa 0 mm - 0 W/m² -
1788314820 26.67° C 82% 1015.2 hPa 0 mm - 0 W/m² -
1788314515 26.67° C 83% 1015.2 hPa 0 mm - 0 W/m² -
1788314211 26.67° C 84% 1015.1 hPa 0 mm - 0 W/m² -
1788313909 27.22° C 81% 1015.4 hPa 0 mm - 0 W/m² -
1788313603 26.67° C 82% 1015.1 hPa 0 mm - 0 W/m² -
1788313298 27.22° C 83% 1014.9 hPa 0 mm - 0 W/m² -
1788312997 27.22° C 80% 1014.9 hPa 0 mm - 0 W/m² -
1788312693 27.22° C 82% 1014.9 hPa 0 mm - 0 W/m² -
1788312389 27.22° C 83% 1014.6 hPa 0 mm - 0 W/m² -
1788312084 27.22° C 81% 1015 hPa 0 mm - 0 W/m² -
1788311780 27.22° C 79% 1014.4 hPa 0 mm - 0 W/m² -
1788311479 27.22° C 81% 1014.8 hPa 0 mm - 0 W/m² -
1788311179 27.22° C 81% 1014.7 hPa 0 mm - 0 W/m² -
1788310875 27.22° C 80% 1014.5 hPa 0 mm - 0 W/m² -
1788310572 27.78° C 80% 1014.5 hPa 0 mm - 0 W/m² -
1788310269 27.78° C 79% 1014.2 hPa 0 mm - 0 W/m² -
1788309968 27.78° C 79% 1014.5 hPa 0 mm - 0 W/m² -
1788309663 27.78° C 78% 1014.3 hPa 0 mm - 0 W/m² -
1788309358 27.78° C 78% 1014.2 hPa 0 mm - 0 W/m² -
1788309054 28.33° C 78% 1014.1 hPa 0 mm - 0 W/m² -

* Rain latest hour (hover to see other rain measurements)
** Current wind speed in m/s (hover to see current wind gust speed)